{"data":{"norad_id":62378,"epoch":"2026-09-21T22:52:15.008736Z","epoch_age_seconds":186450,"freshness":"STALE","line1":"1 62378U 24247B   26264.95295149  .00005764  00000+0  19856-3 0  9992","line2":"2 62378  44.9852 121.9420 0001489 210.4433 149.6364 15.31025066 97781","mean_motion":15.31025066,"eccentricity":0.0001489,"inclination_deg":44.9852,"raan_deg":121.942,"arg_perigee_deg":210.4433,"mean_anomaly_deg":149.6364,"bstar":0.00019856,"rev_number":9778,"period_min":94.054632545121,"perigee_km":471.73257996723,"apogee_km":473.77277491317,"semimajor_km":6850.8896774402,"source":"CELESTRAK","updated_at":"2026-09-23T09:00:21.390859Z"}}